Tracking 29489 objects as of 9-Sep-2024
HD Live streaming from Space Station
objects crossing your sky now

FENGYUN 1C DEB

Track FENGYUN 1C DEB now!
10-day predictions


NORAD ID: 36679
Int'l Code: 1999-025DYZ
Perigee: 827.4 km
Apogee: 952.6 km
Inclination: 98.8 °
Period: 102.6 minutes
Semi major axis: 7261 km
RCS: 0.0078 m2 (small)
Launch date: May 10, 1999
Source: People's Republic of China (PRC)
Launch site: Taiyaun Space Center, China (TSC)

Note: This is SATELLITE DEBRIS
Your satellite tracking list
Your tracking list is empty




NASA's NSSDC Master Catalog

Two Line Element Set (TLE):
1 36679U 99025DYZ 24245.23093270  .00002590  00000-0  16363-2 0  9996
2 36679  98.8240 248.5371 0086237 321.2986  38.2022 14.03160005179881
Source of the keplerian elements: AFSPC